Weather History for Dublin, Ireland

Change the Weather History Date:

Tuesday, December 3, 2013

  Actual Average Record
Temperature  
Mean Temperature 44 °F -  
Max Temperature 48 °F 47 °F 53 °F (2000)
Min Temperature 39 °F 38 °F 19 °F (2010)
Degree Days  
Heating Degree Days 22    
Moisture  
Dew Point 42 °F    
Average Humidity 85    
Maximum Humidity 100    
Minimum Humidity 72    
Precipitation  
Precipitation 0.01 in 0.10 in - ()
Sea Level Pressure  
Sea Level Pressure 30.31 in    
Wind  
Wind Speed 9 mph ()    
Max Wind Speed 20 mph    
Max Gust Speed -    
Visibility 6.8 miles    
Events Rain    
Averages and records for this station are not official NWS values.
T = Trace of Precipitation, MM = Missing Value Source: Averaged Metar Reports

Daily Weather History Graph

Daily Weather History Graph

Search for Another Location

Airport:

Trip Planner

Search our weather history database for the weather conditions in past years. The results will help you decide how hot, cold, wet, or windy it might be!

Date:

Astronomy

Dec. 03, 2013 Rise Set
Actual Time 8:20 AM GMT 4:09 PM GMT
Civil Twilight 7:39 AM GMT 4:50 PM GMT
Nautical Twilight 6:54 AM GMT 5:35 PM GMT
Astronomical Twilight 6:12 AM GMT 6:17 PM GMT
Moon 8:31 AM GMT (12/3) 5:01 PM GMT (12/3)
Length of Visible Light 9h 11m
Length of Day
7h 48m
New Moon, 0% of the Moon is Illuminated
Dec 3
New Moon
Dec 9
First Quarter
Dec 17
Full
Dec 25
Last Quarter
Jan 1
New

Hourly Weather History & Observations

Time (GMT) Temp. Windchill Dew Point Humidity Pressure Visibility Wind Dir Wind Speed Gust Speed Precip Events Conditions
12:00 AM 43 °F - 38 °F 77% 30.43 in 19 mi SSW 6.7 mph - -   Scattered Clouds
12:00 AM 42.8 °F 39.3 °F 39.2 °F 87% 30.42 in 6.2 mi SSW 5.8 mph - N/A   Partly Cloudy
12:30 AM 42.8 °F 39.3 °F 39.2 °F 87% 30.39 in 6.2 mi SSW 5.8 mph - N/A   Partly Cloudy
1:00 AM 41.0 °F 38.0 °F 37.4 °F 87% 30.39 in 6.2 mi South 4.6 mph - N/A   Partly Cloudy
1:30 AM 41.0 °F 38.0 °F 37.4 °F 87% 30.39 in 6.2 mi SSW 4.6 mph - N/A   Partly Cloudy
2:00 AM 41.0 °F 39.0 °F 37.4 °F 87% 30.39 in 6.2 mi South 3.5 mph - N/A   Partly Cloudy
2:30 AM 41.0 °F 37.1 °F 37.4 °F 87% 30.39 in 6.2 mi South 5.8 mph - N/A   Partly Cloudy
3:00 AM 41.0 °F 38.0 °F 37.4 °F 87% 30.39 in 6.2 mi SSW 4.6 mph - N/A   Partly Cloudy
3:30 AM 41.0 °F 38.0 °F 37.4 °F 87% 30.39 in 6.2 mi SSW 4.6 mph - N/A   Partly Cloudy
4:00 AM 41.0 °F 35.8 °F 37.4 °F 87% 30.36 in 6.2 mi SSW 8.1 mph - N/A   Partly Cloudy
4:30 AM 41.0 °F 35.8 °F 37.4 °F 87% 30.36 in 6.2 mi SSW 8.1 mph - N/A   Scattered Clouds
5:00 AM 42.8 °F 37.5 °F 39.2 °F 87% 30.36 in 6.2 mi SW 9.2 mph - N/A   Mostly Cloudy
5:30 AM 44.6 °F 39.7 °F 39.2 °F 81% 30.36 in 6.2 mi SW 9.2 mph - N/A   Mostly Cloudy
6:00 AM 46 °F - 40 °F 72% 30.37 in 22 mi SW 11.2 mph - -   Mostly Cloudy
6:00 AM 46.4 °F 41.1 °F 39.2 °F 76% 30.33 in 6.2 mi SW 11.5 mph - N/A   Mostly Cloudy
6:30 AM 44.6 °F 38.4 °F 41.0 °F 87% 30.36 in 6.2 mi SW 12.7 mph - N/A   Mostly Cloudy
7:00 AM 46.4 °F 41.5 °F 41.0 °F 81% 30.33 in 6.2 mi SW 10.4 mph - N/A   Mostly Cloudy
7:30 AM 44.6 °F 39.2 °F 39.2 °F 81% 30.33 in 6.2 mi SW 10.4 mph - N/A   Mostly Cloudy
8:00 AM 44.6 °F 40.2 °F 39.2 °F 81% 30.33 in 6.2 mi SW 8.1 mph - N/A   Mostly Cloudy
8:30 AM 44.6 °F 39.2 °F 41.0 °F 87% 30.33 in 6.2 mi SW 10.4 mph - N/A   Mostly Cloudy
9:00 AM 46.4 °F 41.9 °F 41.0 °F 81% 30.33 in 6.2 mi SW 9.2 mph - N/A   Mostly Cloudy
9:30 AM 46.4 °F 41.9 °F 41.0 °F 81% 30.33 in 6.2 mi SW 9.2 mph - N/A   Mostly Cloudy
10:00 AM 46.4 °F 41.5 °F 41.0 °F 81% 30.33 in 6.2 mi SW 10.4 mph - N/A   Mostly Cloudy
10:30 AM 46.4 °F 41.5 °F 41.0 °F 81% 30.33 in 6.2 mi SW 10.4 mph - N/A   Mostly Cloudy
11:00 AM 48.2 °F - 41.0 °F 76% 30.33 in 6.2 mi SW 12.7 mph - N/A   Mostly Cloudy
11:30 AM 48.2 °F - 42.8 °F 82% 30.33 in 6.2 mi SW 11.5 mph - N/A   Mostly Cloudy
12:00 PM 48 °F - 42 °F 74% 30.33 in 19 mi SW 11.2 mph - -   Mostly Cloudy
12:00 PM 48.2 °F - 42.8 °F 82% 30.30 in 6.2 mi SW 11.5 mph - N/A   Mostly Cloudy
12:30 PM 48.2 °F - 42.8 °F 82% 30.30 in 6.2 mi SW 12.7 mph - N/A   Mostly Cloudy
1:00 PM 48.2 °F - 42.8 °F 82% 30.30 in 6.2 mi SW 11.5 mph - N/A   Mostly Cloudy
1:30 PM 48.2 °F - 42.8 °F 82% 30.30 in 6.2 mi SW 12.7 mph - N/A   Mostly Cloudy
2:00 PM 48.2 °F - 42.8 °F 82% 30.30 in 6.2 mi SW 13.8 mph - N/A   Mostly Cloudy
2:30 PM 48.2 °F - 44.6 °F 87% 30.27 in 6.2 mi SW 11.5 mph - N/A   Mostly Cloudy
3:00 PM 48.2 °F - 44.6 °F 87% 30.27 in 6.2 mi SW 11.5 mph - N/A   Mostly Cloudy
3:30 PM 48.2 °F - 44.6 °F 87% 30.27 in 6.2 mi SW 10.4 mph - N/A   Mostly Cloudy
4:00 PM 48.2 °F - 44.6 °F 87% 30.27 in 6.2 mi SW 12.7 mph - N/A   Mostly Cloudy
4:30 PM 48.2 °F - 44.6 °F 87% 30.27 in 6.2 mi SW 12.7 mph - N/A   Mostly Cloudy
5:00 PM 48.2 °F - 44.6 °F 87% 30.27 in 6.2 mi SW 12.7 mph - N/A   Mostly Cloudy
5:30 PM 48.2 °F - 44.6 °F 87% 30.27 in 6.2 mi SW 13.8 mph - N/A   Mostly Cloudy
6:00 PM 47 °F - 44 °F 85% 30.27 in 16 mi SW 13.4 mph - -   Partly Cloudy
6:00 PM 48.2 °F - 44.6 °F 87% 30.24 in 6.2 mi SW 13.8 mph - N/A   Mostly Cloudy
6:30 PM 48.2 °F - 44.6 °F 87% 30.24 in 6.2 mi SW 13.8 mph - N/A   Mostly Cloudy
7:00 PM 48.2 °F - 44.6 °F 87% 30.24 in 6.2 mi SW 13.8 mph - N/A   Mostly Cloudy
7:30 PM 48.2 °F - 44.6 °F 87% 30.24 in 6.2 mi SW 16.1 mph - N/A   Mostly Cloudy
8:00 PM 48.2 °F - 44.6 °F 87% 30.24 in 6.2 mi SW 16.1 mph - N/A   Mostly Cloudy
8:30 PM 48.2 °F - 44.6 °F 87% 30.24 in 6.2 mi SW 18.4 mph - N/A   Mostly Cloudy
9:00 PM 48.2 °F - 44.6 °F 87% 30.24 in 6.2 mi WSW 17.3 mph - N/A   Mostly Cloudy
9:30 PM 48.2 °F - 44.6 °F 87% 30.24 in 6.2 mi WSW 18.4 mph - N/A   Mostly Cloudy
10:00 PM 48.2 °F - 44.6 °F 87% 30.24 in 6.2 mi WSW 19.6 mph - N/A   Mostly Cloudy
10:30 PM 48.2 °F - 44.6 °F 87% 30.24 in 6.2 mi WSW 19.6 mph - N/A Rain Light Rain
11:00 PM 46.4 °F 39.0 °F 44.6 °F 93% 30.24 in 3.7 mi West 19.6 mph - N/A Rain Light Rain
11:30 PM 42.8 °F 35.4 °F 42.8 °F 100% 30.27 in 3.7 mi NNW 15.0 mph - N/A Rain Light Rain